Regional Weather Roundup
Issued by NWS Charleston, SC

Current Version | Previous Version | Text Only | Print | Product List | Glossary Off
Versions: 1 2 3 4 5 6 7 8 9 10 11 12 13 14 15 16 17 18 19 20 21 22 23 24 25 26 27 28 29 30 31 32 33 34 35 36 37 38 39 40 41 42 43 44 45 46 47 48 49 50
000 ASUS42 KCHS 210327 RWRCHS Regional Weather Roundup National Weather Service Charleston SC 1000 PM EST MON JAN 20 2020 NOTE: "fair" indicates few or no clouds below 12,000 feet with no significant weather and/or obstructions to visibility. Not all stations are quality controlled. Use data with caution, especially dewpoint observations. SCZ027-030-031-034>040-042>050-210400- ...Southeast South Carolina... CITY SKY/WX TMP DP RH WIND PRES REMARKS N Charleston FAIR 34 21 59 NE7 30.34F WCI 28 Waterfront Prk N/A 40 28 62 NE14 30.19F WCI 32 Mount Pleasant FAIR 34 25 69 CALM 30.34F Johns Island FAIR 37 21 52 CALM 30.34S Pinopolis N/A 39 25 56 NE15 30.28S WCI 31 Moncks Corner FAIR 34 19 55 NE5 30.34F WCI 30 Summerville FAIR 34 19 55 CALM 30.34S Beaufort MCAS FAIR 37 24 59 NE7 30.34S WCI 32 Beaufort Arpt FAIR 37 27 65 NE13 30.34S WCI 29 Hilton Head Is FAIR 39 23 52 NE10 30.34S WCI 32 Walterboro FAIR 28 23 80 N3 30.36S Allendale FAIR 36 21 55 CALM 30.34S ...Southern Midlands and Pee Dee... CITY SKY/WX TMP DP RH WIND PRES REMARKS Georgetown FAIR 32 21 64 NE6 30.36F WCI 26 Kingstree FAIR 30 23 74 CALM 30.36F Orangeburg FAIR 34 19 54 NE5 30.35S WCI 30 Barnwell FAIR 32 21 64 NE3 30.35R Aiken FAIR 30 19 64 NE3 30.35S Manning FAIR 30 23 74 NE3 30.35F Columbia FAIR 34 17 50 N6 30.35S WCI 29 Sumter FAIR 29 16 59 NE7 30.35F WCI 22 Florence FAIR 32 19 58 N6 30.37S WCI 26 Myrtle Beach FAIR 34 19 54 N6 30.37R WCI 29 N Myrtle Beach FAIR 32 23 69 NE3 30.36S $$ GAZ063-065-086>088-099>101-113>116-118-119-134>141-150-210400- ...Southeast Georgia... CITY SKY/WX TMP DP RH WIND PRES REMARKS Savannah Arpt FAIR 38 24 57 NE7 30.34R WCI 33 Hunter AAF FAIR 38 22 52 NE6 30.31R WCI 34 Fort Stewart FAIR 33 26 74 CALM 30.32R Statesboro FAIR 35 24 64 CALM 30.34S Sylvania FAIR 35 25 67 NE3 30.35S Claxton FAIR 33 30 90 CALM 30.34S Millen FAIR 34 22 61 N5 30.35R WCI 30 Metter FAIR 36 23 58 NE5 30.34R WCI 32 Reidsville NOT AVBL ...CSRA, Central and far Southeast Georgia... CITY SKY/WX TMP DP RH WIND PRES REMARKS Thomson FAIR 29 24 81 CALM 30.35R Augusta-Bush FAIR 35 20 54 N7 30.35R WCI 29 Augusta-Daniel FAIR 37 18 46 NE7 30.35R WCI 32 Swainsboro FAIR 36 27 69 NE6 30.35S WCI 31 Vidalia FAIR 36 27 69 N3 30.34R Eastman FAIR 33 26 73 CALM 30.38R Hazlehurst FAIR 36 29 75 N3 30.33R Alma FAIR 33 28 81 CALM 30.32S Waycross FAIR 34 25 68 CALM 30.33R Jesup FAIR 39 25 56 NE5 30.33R WCI 36 Baxley FAIR 32 27 80 CALM 30.32S Brunswick FAIR 39 26 60 N8 30.31F WCI 33 Saint Simons FAIR 40 30 67 N7 30.30S WCI 35 $$ SCZ027-028-034-036>038-045-046-048>050-GAZ119-141-210400- ...Lake and Supplemental Coastal Observations... STATION/POSITION TIME TEMP WIND PRES WAVE SWELL AIR SEA DIR/SP/G HT/PER HT/PER/DIR (UTC) (F) (DEG/KT/KT) (MB) (FT/S) (FT/S/D) Winyah Bay 0245 35 10/ 5 1027.0S Lake Murray 0230 34 20/ 2/ 3 N/A Chrlstn Harbor 0242 41 58 20/ 12/ 16 1027.5F ACE Basin NERRS 0245 36 20/ 2 1028.0S Fort Pulaski 0242 42 57 50/ 15/ 18 1027.3R Sapelo Island NOT AVBL $$ ANZ835-935-AMZ111-154-330-350-352-354-370-450-454-472-210400- ...C-MAN and Buoy Observations... STATION/POSITION TIME TEMP WIND PRES WAVE SWELL AIR SEA DIR/SP/G HT/PER HT/PER/DIR (UTC) (F) (DEG/KT/KT) (MB) (FT/S) (FT/S/D) Buoy 41004 0310 66 1025.7 Buoy 41008 0250 47 59 30/ 17/ 23 1025.7S 4/ 5 2/ 70/ 7 Folly Beach CMAN 0300 39 20/ 16/ 19 1027.7F Capers Nearshore 0308 42 58 60/ 17/ 23 1027.9F Fripp Nearshore 0308 42 56 60/ 17/ 27 1027.8F STATION/POSITION TIME TEMP WIND PRES WAVE SWELL AIR SEA DIR/SP/G HT/PER HT/PER/DIR (UTC) (F) (DEG/KT/KT) (MB) (FT/S) (FT/S/D) 5E St. Marys GA 0300 60 N/A 4/ 5 2/120/13 Frying Pan Buoy 0310 43 65 30/ 17/ 23 1026.4 Buoy 41025 0310 42 73 360/ 25/ 31 1024.7 Cape Lookout NC 0300 34 360/ 14/ 16 1028.2R Buoy 41002 0310 57 360/ 16/ 21 1021.4 Buoy 41010 0310 65 20/ 21/ 25 1019.7 St Augustine FL 0300 50 61 10/ 20/ 23 1024.5S $$

USA.gov is the U.S. government's official web portal to all federal, state and local government web resources and services.